[[{"header":{"parameterUnit":"m.s-1","parameterCategory":1,"la1":30.2991,"la2":30.254,"lo1":-89.0895,"lo2":-89.0444,"dy":0.0017,"dx":0.0017,"nx":28,"ny":28,"refTime":"2025-11-24T09:00:00:Z","depth":0,"parameterNumber":2,"parameterNumberName":"U-component_of_WINDS"},"data":[0,0,0,0,0,0,0,0,0,0,0,0,0,0,0,0,0,0,0,0,0,0,0,0,0,0,0,0,0,0,0,0,0,0,0,0,0,0,0,0,0,0,0,0,0,0,0,0,0,0,0,0,0,0,0,0,0,0,0.3046,0.3046,0,0.309,0.3091,0.3091,0.3081,0.308,0.3079,0.3078,0.3124,0.3126,0.3128,0,0,0,0,0,0,0,0,0,0,0,0,0,0.2952,0.2954,0.3046,0.3046,0.3047,0.309,0.3091,0.3091,0.3081,0.308,0.3079,0.3078,0.3123,0.3125,0.3128,0,0,0,0,0,0,0,0,0,0,0,0,0,0.2994,0.2954,0.3046,0.3047,0.3047,0.309,0.3091,0.3091,0.3081,0.308,0.3079,0.3078,0.3122,0.3125,0.3128,0.3172,0,0,0.3137,0.3139,0,0,0,0,0,0,0,0,0.2992,0.2997,0.3046,0.3047,0.3048,0.3079,0.3074,0.3118,0.3082,0.3068,0.3078,0.3077,0.311,0.3114,0.3125,0.3174,0.3176,0.3138,0.3139,0.3141,0.3141,0,0,0,0,0,0,0,0.2989,0.2995,0.3063,0.3047,0.3048,0.3045,0.305,0.3082,0.3096,0.3069,0.3069,0.3074,0.311,0.3122,0.3126,0.3177,0.3137,0.314,0.3142,0.3143,0.3263,0.3265,0,0,0,0,0,0,0.2985,0.2993,0.3062,0.3065,0.3016,0.3048,0.3053,0.307,0.3095,0.3098,0.3075,0.3074,0.3117,0.3122,0.3127,0.318,0.3141,0.3143,0.3145,0.3262,0.3264,0.3265,0,0,0,0,0,0,0.2983,0.2991,0.306,0.3029,0.3037,0.3051,0.307,0.3071,0.3083,0.31,0.3102,0.3085,0.3117,0.3123,0.3161,0.3181,0.3145,0.3147,0.326,0.3263,0.3264,0.3286,0,0,0,0,0,0,0.2981,0.2991,0.3008,0.3029,0.3039,0.3093,0.3071,0.3073,0.3089,0.3087,0.3109,0.3112,0.3116,0.3156,0.3164,0.3185,0.315,0.3259,0.3261,0.3264,0.3283,0.3288,0.3293,0,0,0,0,0,0.2977,0.3012,0.3009,0.3017,0.306,0.3094,0.31,0.3104,0.309,0.3107,0.3118,0.3111,0.3178,0.316,0.3168,0.3191,0.3257,0.3261,0.3264,0.3281,0.3287,0.3292,0,0,0,0,0,0,0.2992,0.3015,0.3011,0.3054,0.3072,0.3092,0.3114,0.311,0.3133,0.313,0.3134,0.3139,0.3178,0.3188,0.3168,0.3234,0.3216,0.3221,0.3226,0.3232,0.3237,0.3233,0.3152,0,0,0,0,0,0.3001,0.3027,0.3045,0.308,0.309,0.31,0.3115,0.3117,0.3136,0.3143,0.3156,0.3175,0.32,0.3217,0.3241,0.3285,0.3289,0.3304,0.3309,0.3312,0.3317,0.334,0.3347,0.3276,0.3276,0.3276,0,0,0.3018,0.3034,0.305,0.3084,0.3098,0.3125,0.3107,0.3136,0.3155,0.3148,0.3184,0.3194,0.3215,0.3256,0.3275,0.3266,0.3337,0.3316,0.3319,0.3322,0.3344,0.3351,0.3357,0.3278,0.3277,0.3277,0,0,0.3063,0.3078,0.3109,0.3124,0.3146,0.3153,0.316,0.3181,0.3187,0.3224,0.3219,0.3242,0.3285,0.33,0.3314,0.3364,0.3359,0.3372,0.3397,0.342,0.3425,0.343,0.3448,0.3455,0.3376,0.3376,0.3376,0,0.3082,0.3122,0.3126,0.3155,0.317,0.3165,0.3196,0.321,0.3239,0.3249,0.3239,0.3293,0.3307,0.3351,0.3363,0.3374,0.3383,0.337,0.3424,0.3429,0.3434,0.3451,0.3458,0.3378,0.3377,0.3377,0.3377,0,0.3144,0.3172,0.3194,0.3222,0.324,0.327,0.3278,0.3296,0.3296,0.3303,0.334,0.3357,0.3384,0.3394,0.3395,0.3439,0.3432,0.3423,0.3404,0.3442,0.3458,0.3465,0.338,0.3379,0.3379,0.3378,0,0,0.32,0.323,0.3238,0.3251,0.3274,0.3296,0.3326,0.3352,0.3367,0.3387,0.3412,0.3448,0.344,0.3455,0.3457,0.3477,0.3516,0.3465,0.3465,0.3474,0.3565,0.3572,0.3579,0.3512,0.3514,0.3515,0.3563,0,0.3248,0.3301,0.3305,0.3353,0.3378,0.3373,0.3399,0.3416,0.3424,0.3447,0.3455,0.3481,0.3468,0.3477,0.3497,0.3507,0.3534,0.3503,0.3535,0.3537,0.353,0.3588,0.3595,0.364,0.3569,0.357,0.3571,0,0.331,0.3332,0.3382,0.3402,0.3413,0.3436,0.3461,0.3483,0.3502,0.3506,0.3523,0.3522,0.3552,0.3533,0.3574,0.3553,0.3567,0.3574,0.3575,0.3579,0.3556,0.3592,0.3655,0.3661,0.3581,0.358,0.358,0,0.3346,0.3388,0.3423,0.3434,0.3459,0.3475,0.3486,0.3504,0.3519,0.3541,0.3551,0.3575,0.3589,0.3608,0.3613,0.3598,0.3655,0.3635,0.3659,0.3659,0.3671,0.367,0.3736,0.368,0.368,0.368,0.368,0,0.3398,0.3429,0.344,0.3462,0.3496,0.35,0.3534,0.3544,0.356,0.3583,0.358,0.3602,0.3608,0.3631,0.3635,0.3669,0.3675,0.368,0.368,0.368,0.3679,0.3689,0.3686,0.3681,0.3681,0.3681,0.368,0,0.3444,0.3453,0.3491,0.3511,0.3516,0.3541,0.3558,0.3579,0.3586,0.3616,0.3623,0.3634,0.3661,0.3668,0.3701,0.3703,0.3743,0.3741,0.3737,0.3737,0.376,0.3758,0.3834,0.3844,0.3781,0.3782,0.3782,0,0.3477,0.3501,0.3523,0.3539,0.355,0.3576,0.3592,0.3596,0.3613,0.3637,0.3655,0.3681,0.3703,0.3746,0.3757,0.3781,0.378,0.3805,0.3783,0.3782,0.378,0.3778,0.378,0.3809,0.3809,0.381,0.381,0,0.3534,0.3537,0.3561,0.3586,0.3605,0.3624,0.3643,0.3656,0.3663,0.3682,0.371,0.3726,0.3759,0.3785,0.381,0.3821,0.3817,0.3817,0.3824,0.3824,0.382,0.3822,0.3748,0.3815,0.3815,0.3814,0.3814,0.3814,0.3575,0.3596,0.3615,0.3641,0.3655,0.3673,0.3693,0.3703,0.3727,0.3754,0.3755,0.3785,0.3803,0.3836,0.3848,0.3871,0.3864,0.3873,0.3876,0.3878,0.388,0.3816,0.3876,0.3876,0.3875,0.3875,0.3875,0,0.3632,0.3644,0.3668,0.3694,0.3715,0.3709,0.373,0.3747,0.3773,0.3791,0.3812,0.3844,0.3869,0.3882,0.3907,0.3923,0.3922,0.3929,0.3928,0.3931,0.3886,0.3877,0.393,0.393,0.393,0.393,0.393,0.393,0.3664,0.3699,0.3704,0.3746,0.3758,0.3787,0.3799,0.3815,0.3829,0.3865,0.3886,0.3894,0.391,0.3936,0.3959,0.3962,0.3971,0.398,0.3982,0.394,0.3934,0.3929,0.3921,0.3982,0.3982,0.4025,0.4026,0.4026]},{"header":{"parameterUnit":"m.s-1","parameterCategory":1,"la1":30.2991,"la2":30.254,"lo1":-89.0895,"lo2":-89.0444,"dy":0.0017,"dx":0.0017,"nx":28,"ny":28,"refTime":"2025-11-24T09:00:00:Z","depth":0,"parameterNumber":3,"parameterNumberName":"V-component_of_WINDS"},"data":[0,0,0,0,0,0,0,0,0,0,0,0,0,0,0,0,0,0,0,0,0,0,0,0,0,0,0,0,0,0,0,0,0,0,0,0,0,0,0,0,0,0,0,0,0,0,0,0,0,0,0,0,0,0,0,0,0,0,4.9566,4.9568,0,4.9697,4.9698,4.9699,4.9705,4.9703,4.9702,4.97,4.9832,4.9837,4.9841,0,0,0,0,0,0,0,0,0,0,0,0,0,4.9321,4.9326,4.9566,4.9568,4.9569,4.9696,4.9698,4.97,4.9705,4.9703,4.9701,4.97,4.983,4.9836,4.9842,0,0,0,0,0,0,0,0,0,0,0,0,0,4.9437,4.9327,4.9566,4.9587,4.9591,4.9696,4.9698,4.97,4.9705,4.9703,4.9701,4.9699,4.9828,4.9835,4.9843,4.9935,0,0,4.9865,4.9869,0,0,0,0,0,0,0,0,4.9431,4.9446,4.9583,4.9586,4.959,4.9682,4.966,4.9779,4.9706,4.9662,4.97,4.9697,4.9784,4.9795,4.9824,4.9941,4.9947,4.9866,4.987,4.9874,4.9876,0,0,0,0,0,0,0,4.9423,4.9441,4.9618,4.9585,4.9589,4.959,4.9604,4.9683,4.9734,4.9665,4.9666,4.9682,4.9785,4.9817,4.9827,4.9949,4.9866,4.9872,4.9877,4.988,5.015,5.0153,0,0,0,0,0,0,4.9411,4.9434,4.9614,4.9622,4.9503,4.9597,4.9612,4.9655,4.9733,4.9743,4.9683,4.9681,4.9805,4.9819,4.9832,4.9947,4.9874,4.9881,4.9885,5.0147,5.0151,5.0154,0,0,0,0,0,0,4.9405,4.9427,4.9608,4.9528,4.9551,4.9603,4.9651,4.9659,4.969,4.9747,4.9756,4.9707,4.9804,4.9821,4.991,4.9951,4.9884,4.9891,5.0144,5.0148,5.0152,5.0176,0,0,0,0,0,0,4.9398,4.9425,4.946,4.9529,4.9556,4.9684,4.9654,4.9663,4.9703,4.9702,4.9771,4.978,4.9804,4.9899,4.9917,4.996,4.9896,5.0141,5.0146,5.0151,5.0172,5.0181,5.0188,0,0,0,0,0,4.939,4.9461,4.9462,4.9484,4.9601,4.9687,4.9702,4.9728,4.9707,4.9743,4.978,4.9778,4.9944,4.9908,4.9929,4.9975,5.0138,5.0145,5.015,5.0169,5.0179,5.0188,0,0,0,0,0,0,4.9395,4.947,4.9472,4.9568,4.9621,4.9688,4.9734,4.9738,4.9798,4.9794,4.9823,4.9839,4.9927,4.9959,4.9918,5.0069,5.0038,5.0049,5.0045,5.0056,5.0063,5.0054,4.9903,0,0,0,0,0,4.9407,4.9471,4.9533,4.9612,4.9638,4.9682,4.972,4.9736,4.9791,4.9814,4.9857,4.9911,4.9975,5.0017,5.0079,5.0176,5.0193,5.0219,5.0226,5.0233,5.0242,5.0298,5.0311,5.0174,5.0174,5.0174,0,0,4.9433,4.9482,4.952,4.9614,4.9657,4.9722,4.97,4.977,4.9819,4.9824,4.9911,4.9944,5.0007,5.0101,5.0144,5.013,5.0284,5.0241,5.0245,5.0251,5.0306,5.0319,5.033,5.0178,5.0177,5.0177,0,0,4.9515,4.9558,4.9629,4.9673,4.9739,4.9768,4.9785,4.9851,4.9874,4.9962,4.9968,5.0026,5.0136,5.0181,5.0218,5.0318,5.0319,5.0337,5.038,5.0434,5.0445,5.0455,5.0492,5.0505,5.0346,5.0346,5.0346,0,4.9539,4.9638,4.9665,4.9736,4.9777,4.9786,4.9859,4.99,4.9982,5.0011,4.9994,5.0134,5.0176,5.0282,5.0306,5.0335,5.0357,5.033,5.0441,5.0451,5.0461,5.0497,5.0511,5.0348,5.0348,5.0347,5.0347,0,4.9666,4.9734,4.9784,4.9865,4.9912,4.9983,5.0021,5.0065,5.0077,5.0108,5.0198,5.0249,5.0323,5.0349,5.036,5.0457,5.0446,5.0435,5.0405,5.0475,5.051,5.0524,5.0351,5.035,5.0349,5.0349,0,0,4.9754,4.985,4.9868,4.9906,4.998,5.0034,5.0105,5.0179,5.0217,5.0273,5.0335,5.0429,5.042,5.0462,5.0478,5.0526,5.0605,5.0509,5.0511,5.0527,5.0717,5.0726,5.0741,5.0605,5.0608,5.061,5.0712,0,4.9845,4.9975,5.0001,5.0113,5.0178,5.0188,5.025,5.0303,5.0333,5.0393,5.0426,5.0493,5.0474,5.05,5.0548,5.0585,5.0643,5.0578,5.0664,5.0667,5.065,5.0759,5.0769,5.0863,5.0725,5.0728,5.0729,0,4.9969,5.003,5.0149,5.0216,5.0244,5.0301,5.0371,5.0427,5.0487,5.0506,5.0554,5.0566,5.0642,5.0607,5.0713,5.0668,5.0704,5.0728,5.0732,5.0743,5.0704,5.0774,5.0893,5.0908,5.0751,5.0749,5.0747,0,5.0024,5.0136,5.0222,5.0254,5.0334,5.0374,5.0409,5.0466,5.0509,5.057,5.0599,5.0667,5.0705,5.0758,5.0789,5.076,5.0893,5.086,5.0911,5.0911,5.094,5.0938,5.1068,5.096,5.096,5.096,5.096,0,5.0124,5.0197,5.0249,5.0302,5.0384,5.0414,5.0494,5.0529,5.0581,5.0641,5.0652,5.0709,5.0745,5.0806,5.083,5.0915,5.0931,5.095,5.0955,5.095,5.0948,5.0975,5.097,5.0964,5.0963,5.0962,5.0962,0,5.0201,5.0238,5.0333,5.0401,5.042,5.0478,5.0537,5.0589,5.062,5.0696,5.0716,5.0764,5.0837,5.0873,5.0963,5.0979,5.1076,5.1077,5.1057,5.1059,5.1109,5.1105,5.1263,5.1286,5.1162,5.1163,5.1164,0,5.0263,5.0319,5.0394,5.0436,5.0473,5.0539,5.0584,5.0615,5.0661,5.0735,5.0778,5.0852,5.0913,5.103,5.1073,5.1143,5.1146,5.1197,5.1157,5.115,5.115,5.1147,5.1153,5.1205,5.1206,5.1207,5.1207,0,5.037,5.0386,5.045,5.0521,5.0574,5.0632,5.0688,5.0721,5.0762,5.0813,5.0889,5.0936,5.1029,5.1103,5.1176,5.1212,5.1218,5.122,5.1236,5.1231,5.1218,5.1228,5.1078,5.1216,5.1215,5.1215,5.1214,5.1214,5.0443,5.0495,5.0556,5.0627,5.0673,5.0726,5.0779,5.0817,5.0881,5.0961,5.0975,5.1056,5.1116,5.1214,5.1253,5.1317,5.1305,5.1328,5.1334,5.134,5.1343,5.1207,5.133,5.1329,5.1329,5.1329,5.1329,0,5.0553,5.0593,5.0659,5.0738,5.0794,5.0794,5.0857,5.0904,5.0976,5.1031,5.1091,5.1179,5.1251,5.1301,5.1374,5.1416,5.142,5.1434,5.1432,5.1441,5.1348,5.1328,5.1429,5.1429,5.1429,5.1429,5.1429,5.1429,5.0617,5.0705,5.0729,5.084,5.0879,5.096,5.0996,5.1045,5.1089,5.1187,5.1248,5.128,5.1333,5.1411,5.1477,5.149,5.1517,5.1531,5.1544,5.1457,5.1447,5.1437,5.1418,5.1537,5.1537,5.1632,5.1632,5.1633]}]]